Weather Roundup
Issued by NWS Chicago, IL

Home | Current Version | Previous Version | Text Only | Print | Product List | Glossary On
Versions: 1 2 3 4 5 6 7 8 9 10 11 12 13 14 15 16 17 18 19 20 21 22 23 24 25 26 27 28 29 30 31 32 33 34 35 36 37 38 39 40 41 42 43 44 45 46 47 48 49 50
000
NZUS59 KLOT 231910
HRRLOT

CHICAGO AREA WEATHER ROUNDUP
NATIONAL WEATHER SERVICE CHICAGO/ROMEOVILLE IL
200 PM CDT SAT AUG 23 2014

NOTE: "FAIR" INDICATES FEW OR NO CLOUDS BELOW 12,000 FEET WITH NO
SIGNIFICANT WEATHER AND/OR OBSTRUCTIONS TO VISIBILITY.

* THESE STATIONS ARE NOT UNDER NWS QUALITY CONTROL. THEY ALSO MAY NOT
  REPORT WEATHER SUCH AS PRECIPITATION OR FOG.

ILZ005-006-012>014-019>023-232000-
NORTHEAST ILLINOIS

CITY           SKY/WX    TMP DP  RH WIND       PRES   REMARKS
OHARE          TSTM      77  68  73 NW29G36   30.05R
MIDWAY         TSTM      80  75  84 NE8       30.01R HX  85
AURORA         CLOUDY    76  71  85 N9        29.98F
LANSING*       CLOUDY    80  73  81 CALM      30.00S HX  84
JOLIET*        TSTM      73  69  87 NE17      30.02S
WAUKEGAN       CLOUDY    74  71  91 CALM      30.04R FOG
DUPAGE AIRPORT TSTM      74  70  87 NE8       30.01F
WHEELING       TSTM      76  70  82 NW26G39   30.11R
KANKAKEE*      CLOUDY    71  69  95 W6G18     30.04R
MORRIS*        TSTM      72  71  96 CALM      30.00F
LEWIS AIRPORT* HVY RAIN  70  69  96 NE3G21    30.03R VSB 1
NORTHERLY IS     N/A     74  72  93 MISG        N/A
$$

WIZ051-052-058>065-066-070>072-232000-
SOUTHEAST WISCONSIN

CITY           SKY/WX    TMP DP  RH WIND       PRES   REMARKS
MILWAUKEE      CLOUDY    73  70  90 VRB3      30.04R FOG
KENOSHA*       CLOUDY    76  73  91 E5        30.04R FOG
RACINE*        CLOUDY    74  71  91 E6        30.05S FOG
BURLINGTON     CLOUDY    75  73  91 S3        30.03F
WAUKESHA       CLOUDY    75  72  88 SE8       30.05R FOG
WEST BEND      CLOUDY    73  68  83 E8        30.04R
$$

INZ001>003-010>013-019-020-232000-
NORTHWEST INDIANA

CITY           SKY/WX    TMP DP  RH WIND       PRES   REMARKS
GARY*          PTSUNNY   81  75  83 NE9       30.01S HAZE    HX  86
MICHIGAN CITY* NOT AVBL
RENSSELAER*    NOT AVBL
VALPARAISO     CLOUDY    86  73  65 CALM      30.01S HX  93
$$

LMZ740>746-232000-
SOUTHERN LAKE MICHIGAN

STATION/POSITION TIME  SKY/WX   TEMP WIND        PRES    VSBY
                                AIR  DIR/SP/G
                 (UTC)          (F)  (DEG/KT/KT) (MB)    (MI)
HARRISON CRIB    1900            72   60/  9/ 10   N/A
BURNHAM HARBOR   1900            74   20/  4/  7   N/A
CALUMET HARBOR   1900            74   30/  5/  7 1014.9S
BURNS HARBOR     NOT AVBL
MICHIGAN CITY    1900            76   20/ 12/ 12   N/A
$$

ABBREVIATIONS USED IN REMARKS
   TC - TEMPERATURE IN CELSIUS
  WCI - WIND CHILL INDEX
   HX - HEAT INDEX
  VSB - VISIBILITY
$$


USA.gov is the U.S. government's official web portal to all federal, state and local government web resources and services.